GFSGBSN_925_thetae_060.txt.gz
Theta_e
305 304 304 303 302 302 302 301 302 302 301 301 301 301 301 302 306 305 306 307 307 307 308 316 313 311 318 319 314 318 326 327 328 325 332 335 335 334 333 336 339 348 352 354 353 352 352
303 303 304 303 303 302 302 302 302 301 301 301 301 301 301 303 306 306 306 306 306 307 312 315 312 312 319 316 315 318 326 326 322 323 331 329 330 329 329 331 334 339 341 348 352 354 352
303 303 303 303 302 302 302 301 301 301 301 301 300 300 301 306 306 306 307 306 307 308 315 313 316 318 319 318 317 317 325 325 327 325 329 326 327 328 326 329 333 334 342 342 346 353 354
303 303 302 302 302 301 301 301 301 301 301 301 300 300 301 309 307 307 307 307 310 314 311 316 318 321 318 315 317 316 320 325 329 328 325 327 324 328 325 325 324 328 331 339 345 350 351
301 302 301 301 301 301 301 301 301 301 301 301 300 300 301 310 307 307 307 311 314 310 314 319 323 320 315 312 313 312 314 324 326 323 324 324 323 327 328 324 323 325 329 333 353 350 351
301 301 301 301 301 301 301 300 300 301 301 300 299 300 301 310 307 308 308 309 309 319 319 320 319 320 313 313 312 312 315 323 326 325 320 321 323 324 324 324 326 326 328 332 348 351 351
301 301 301 301 301 301 300 300 300 301 300 300 301 301 302 310 307 308 311 311 317 314 313 312 312 312 312 312 313 315 320 324 324 328 322 320 323 323 323 323 324 326 328 330 341 348 352
301 301 301 301 301 300 300 300 300 300 300 304 306 304 302 309 307 308 311 313 312 311 314 311 310 311 310 310 314 314 319 325 323 325 322 320 320 322 323 322 322 323 329 332 332 343 351
301 301 301 301 301 300 300 300 300 301 305 306 307 306 302 309 306 310 311 310 310 310 313 312 311 311 311 311 313 313 317 322 326 324 322 322 322 320 320 322 322 322 324 329 332 335 342
302 301 301 301 301 301 301 300 301 305 305 305 306 306 303 309 308 311 311 310 310 310 313 312 311 310 311 311 312 312 316 317 322 327 325 323 323 321 320 321 321 322 321 322 329 334 341
304 302 302 301 301 301 300 301 305 305 305 306 306 306 305 309 312 313 311 310 309 308 312 310 311 310 311 312 312 313 316 318 319 321 326 326 324 324 322 322 321 321 321 321 322 330 334
305 303 302 302 301 300 300 305 305 305 305 306 307 305 309 311 312 310 310 309 308 313 312 311 311 310 312 312 311 313 315 317 319 320 322 324 325 325 325 324 322 322 321 321 321 321 330
308 303 302 301 300 300 304 305 306 306 306 306 307 306 309 310 312 309 310 310 314 313 311 312 312 311 311 312 311 313 315 316 317 318 319 321 322 324 325 325 325 322 323 326 325 322 320
308 304 302 300 300 302 305 306 307 307 307 306 306 307 308 308 309 309 311 315 316 313 312 310 310 311 311 311 311 311 313 314 316 316 317 320 320 320 323 326 326 324 325 326 328 326 323
307 304 301 300 301 305 306 307 307 307 307 306 305 310 311 310 308 308 315 318 316 313 312 312 311 312 312 310 311 311 312 313 315 315 316 319 319 322 323 323 326 327 327 325 326 327 327
307 304 301 301 304 306 307 307 306 306 306 306 307 311 310 309 308 311 316 314 314 312 312 312 313 312 313 312 311 312 312 314 315 313 313 315 315 318 322 322 324 326 327 327 327 329 331
305 303 302 304 307 308 307 307 306 306 306 306 308 315 309 309 309 315 317 315 313 312 312 313 313 313 313 312 311 312 312 312 313 313 313 313 313 314 315 322 323 325 327 328 327 327 329
303 303 305 308 308 307 307 307 306 306 305 309 309 314 309 310 315 314 315 312 307 312 311 312 312 312 312 312 312 312 311 311 311 312 312 313 313 315 314 316 323 323 326 327 330 331 328
303 304 308 308 307 307 307 306 306 306 305 308 311 311 309 312 316 314 312 311 311 311 312 312 312 311 310 311 312 311 311 311 312 311 312 314 312 314 314 313 315 319 323 327 327 329 332
304 305 308 308 307 307 307 307 306 306 305 308 312 316 313 312 311 312 312 312 312 310 311 311 312 311 312 312 312 312 311 310 312 311 313 312 310 313 314 314 314 320 324 324 326 330 331
304 304 308 307 307 307 307 307 307 306 305 308 312 312 310 314 311 312 311 312 312 311 310 310 312 311 311 312 311 311 311 310 310 310 312 313 313 312 311 310 310 312 314 317 321 326 330
303 305 307 307 307 307 307 307 307 306 307 310 314 313 311 309 310 310 311 311 311 311 310 311 311 311 312 314 312 313 311 311 311 310 312 313 314 311 311 310 309 309 311 314 316 322 324
302 306 307 306 307 307 307 307 307 306 308 310 309 308 311 309 311 313 312 311 312 311 311 310 310 311 311 311 311 310 310 310 311 311 313 312 312 312 311 309 311 313 314 317 318 320 322
304 307 307 306 307 307 307 307 307 307 307 309 309 310 311 312 312 312 311 312 311 310 312 310 308 310 309 310 310 310 310 310 310 310 309 312 313 312 311 311 311 310 313 317 318 321 322
307 307 307 307 307 307 307 307 307 307 307 310 310 309 311 314 312 311 311 311 309 310 310 310 309 310 310 310 312 311 310 310 310 310 310 309 313 311 311 311 310 315 322 323 324 321 324
307 307 307 307 307 307 307 308 308 307 307 310 310 309 309 314 313 311 311 310 311 311 312 309 309 308 309 310 313 313 315 313 313 312 309 309 311 314 312 313 316 321 317 316 320 331 324
306 307 306 306 307 307 307 307 308 308 308 310 310 309 310 315 313 311 312 311 311 311 311 311 310 310 308 311 313 315 315 314 314 314 312 313 313 315 313 313 314 316 315 315 328 327 322
307 307 306 306 307 307 308 308 308 308 308 310 309 310 311 314 313 311 310 311 311 311 312 311 312 310 309 312 314 314 315 313 315 312 312 313 315 314 314 314 316 315 316 318 317 318 317
307 307 306 307 307 308 308 308 308 308 308 309 311 308 307 309 314 311 310 310 309 309 310 312 312 311 308 309 311 311 313 312 314 318 312 313 313 315 314 315 315 313 313 312 313 316 317

GFSGBSN_925_thetae_063.txt.gz
Theta_e
304 304 303 303 302 302 302 301 301 301 301 301 301 300 301 303 306 306 306 306 306 306 307 311 315 312 319 324 320 319 325 324 327 322 333 339 339 339 339 340 343 348 349 354 354 353 355
303 303 303 302 302 301 301 301 301 301 301 301 301 300 301 304 308 306 307 307 307 307 309 314 312 311 323 323 317 319 326 330 327 321 331 335 335 336 335 335 337 339 344 350 354 354 353
302 302 302 301 301 301 301 301 301 301 301 301 300 300 301 304 309 306 307 307 309 310 313 312 315 320 324 321 318 319 326 327 328 322 330 333 331 334 331 330 331 336 340 343 348 354 354
301 301 301 301 301 301 301 301 301 301 301 300 300 301 301 304 309 307 308 308 312 310 310 315 317 325 322 316 318 319 325 327 325 324 326 332 328 329 330 328 328 333 336 342 345 350 353
301 301 302 301 301 301 300 300 301 301 300 301 304 304 302 303 309 307 309 308 311 310 312 319 326 327 319 314 317 316 323 327 329 330 327 328 328 328 329 328 328 328 335 338 340 343 350
301 301 301 301 301 301 300 300 300 300 302 306 307 307 304 303 309 308 309 309 318 314 322 323 322 323 316 316 316 316 318 324 331 326 329 328 328 328 330 330 328 327 329 333 338 350 351
302 301 301 302 301 301 300 300 300 301 306 306 307 308 306 303 309 309 312 315 323 322 318 316 316 315 316 315 316 320 322 326 328 327 325 327 328 326 328 329 328 327 328 331 336 351 352
304 302 301 302 301 301 300 300 301 305 306 306 307 308 307 304 307 310 312 316 314 314 317 314 314 314 313 315 317 320 324 325 327 331 327 324 324 325 325 326 325 325 327 329 333 341 351
307 304 302 302 301 301 300 300 305 305 306 307 307 307 306 307 307 312 314 314 313 314 316 315 314 314 314 315 316 317 321 326 325 328 330 327 325 324 325 325 325 325 326 328 333 334 346
309 306 303 302 301 300 300 303 306 306 306 307 307 307 305 308 309 314 315 313 313 313 318 315 313 313 314 315 315 315 318 322 325 327 324 325 325 324 324 324 326 327 325 325 328 335 340
310 307 303 301 301 300 302 305 306 306 307 307 307 306 306 308 314 316 314 314 313 313 318 314 313 312 314 314 316 316 316 319 320 323 326 326 325 325 325 324 324 326 325 324 324 326 335
312 307 304 301 300 301 305 306 307 307 307 307 307 306 309 314 314 314 313 313 312 316 315 313 313 313 314 314 314 315 316 317 318 320 322 324 327 325 325 325 324 325 324 325 325 324 326
312 307 303 300 301 304 306 307 308 307 307 307 306 307 309 312 315 313 313 316 318 316 316 315 315 314 314 315 315 315 317 317 317 319 318 319 321 324 326 326 325 325 326 327 327 326 325
309 305 302 301 303 306 308 308 307 307 306 306 306 308 313 312 313 313 314 319 319 317 316 314 313 314 314 315 315 314 315 316 318 317 319 319 321 321 322 326 327 326 327 329 332 329 327
307 304 302 303 306 308 308 307 307 306 306 306 307 312 314 313 313 312 318 322 321 318 316 316 315 315 315 314 313 315 315 316 317 318 317 317 318 322 322 322 325 328 328 327 328 329 330
305 303 303 307 308 308 307 307 307 306 306 307 312 313 314 313 313 314 320 318 319 316 315 316 316 316 316 316 314 315 316 316 317 316 315 316 319 321 320 322 325 326 328 328 327 332 333
303 303 306 308 308 307 307 307 307 306 306 310 313 319 314 314 314 319 321 320 318 315 315 316 317 317 317 316 316 315 316 315 314 315 315 315 316 318 317 321 324 324 327 329 330 329 331
304 305 307 308 307 308 307 307 307 306 306 313 315 319 314 314 320 318 320 316 309 315 315 315 315 316 316 316 316 316 315 315 314 314 315 316 315 317 317 317 317 319 322 322 331 333 330
305 305 307 308 308 307 307 307 307 306 306 310 317 317 314 316 321 319 316 315 314 315 315 315 315 314 314 314 315 315 315 314 313 313 314 315 316 318 317 316 317 317 322 325 326 327 333
304 305 308 307 307 307 307 307 307 307 306 309 318 321 317 316 316 316 317 315 315 313 314 314 314 314 314 314 314 315 314 313 313 313 314 313 316 318 317 317 317 318 317 322 325 328 328
303 307 308 307 307 307 307 307 307 307 308 310 317 316 315 317 316 316 316 315 315 315 313 313 314 313 314 315 314 314 313 313 312 312 313 313 314 314 314 314 315 315 317 321 323 328 331
304 308 307 307 307 307 307 308 307 308 311 314 318 318 314 316 314 314 313 315 312 312 313 314 313 313 312 315 314 316 314 314 314 314 313 312 313 314 317 315 314 314 314 315 320 324 326
306 308 307 308 307 307 307 308 307 309 311 314 313 312 316 311 313 314 313 314 314 313 313 312 313 313 313 313 312 313 312 312 312 312 313 315 318 315 316 314 314 314 313 313 315 318 321
307 307 307 307 307 308 308 308 307 308 312 313 313 313 316 316 315 314 313 312 312 312 313 311 312 312 312 311 311 312 312 311 311 311 311 315 316 317 319 315 317 314 313 315 316 316 319
308 307 307 307 307 308 308 308 308 307 311 313 312 314 316 317 315 314 313 312 312 312 312 312 310 311 310 311 313 314 314 313 312 311 311 311 312 317 316 314 313 313 321 324 325 325 318
307 307 307 307 307 307 308 308 308 307 310 313 311 312 315 318 316 314 315 314 315 315 314 312 311 311 311 312 314 316 317 317 315 314 313 311 312 315 313 314 315 315 320 318 322 327 328
307 307 307 307 307 307 308 308 308 308 310 313 313 313 315 317 315 315 315 315 313 313 314 312 312 312 311 313 316 317 317 315 316 315 315 317 317 317 315 315 314 313 317 316 326 326 323
308 307 307 307 307 308 308 308 308 308 308 313 313 312 314 318 315 314 314 315 314 313 316 314 314 314 312 314 314 315 316 316 314 315 313 315 318 317 317 316 315 318 317 317 321 319 320
308 307 307 307 307 308 308 308 308 308 308 312 315 312 312 314 317 314 314 312 312 312 313 314 313 312 310 311 312 312 315 314 315 318 314 314 315 317 315 314 316 316 316 316 316 317 316

GFSGBSN_925_thetae_069.txt.gz
Theta_e
302 302 302 302 302 301 301 301 301 301 301 301 304 306 307 307 305 303 308 307 308 309 309 307 310 313 316 323 322 321 319 317 317 313 318 321 337 338 341 342 343 345 346 347 349 355 358
304 302 302 302 302 301 301 301 301 300 300 303 306 307 307 308 307 303 307 307 308 309 312 312 311 312 316 325 321 322 327 319 321 320 319 321 339 339 339 341 340 340 342 343 351 355 355
308 305 303 302 302 301 301 300 301 300 302 306 307 308 308 307 308 304 307 308 308 309 311 311 314 316 325 327 320 322 326 330 323 322 319 327 336 340 337 338 336 335 331 332 341 356 357
316 309 305 303 302 302 301 300 300 300 306 307 307 308 308 307 308 306 307 308 308 309 311 314 316 322 329 324 317 320 320 326 329 324 319 326 330 334 333 333 334 332 326 330 332 342 354
317 312 307 304 303 302 301 300 300 304 306 307 307 308 308 307 307 306 307 308 310 312 310 315 322 323 331 317 317 318 320 326 329 327 322 320 322 330 332 328 329 331 328 329 331 333 344
318 314 309 305 304 302 301 300 302 306 306 307 307 308 307 307 308 305 308 310 312 314 318 323 322 325 325 320 318 317 318 323 327 326 325 323 325 330 331 326 329 331 326 326 328 333 336
318 315 311 305 304 301 300 301 305 306 306 307 307 307 307 307 307 304 307 310 319 320 318 326 324 327 319 317 317 317 318 323 327 325 325 327 327 331 330 327 326 328 329 328 327 330 334
317 314 312 306 302 301 301 305 306 306 307 307 307 306 306 306 305 306 307 313 314 314 314 316 319 319 316 316 317 321 321 320 328 331 330 330 329 329 330 329 329 327 328 328 328 326 343
316 313 310 304 301 301 304 306 306 307 307 306 306 306 306 306 305 309 310 315 315 315 314 315 316 315 314 315 315 321 322 324 327 330 328 324 329 330 330 330 326 325 326 326 327 326 340
315 313 306 303 302 303 306 307 307 307 307 306 306 307 306 306 311 313 316 315 315 315 314 318 314 314 315 315 314 318 319 320 324 326 326 326 325 325 328 329 326 322 324 326 325 323 323
314 307 304 303 304 306 308 308 307 307 307 307 307 308 306 307 308 313 316 315 315 314 320 316 314 314 315 313 316 316 317 318 321 323 324 325 326 327 327 326 323 323 325 324 325 323 323
308 305 304 305 307 309 309 308 308 307 307 307 308 308 306 315 314 317 316 315 316 315 319 315 314 313 313 313 314 317 317 316 317 316 317 319 320 322 324 326 325 324 323 322 322 322 324
304 304 305 308 309 309 309 308 308 307 308 309 309 307 305 309 316 315 315 315 317 317 317 315 314 313 313 314 315 315 316 315 314 315 316 317 315 317 320 324 323 323 323 322 323 323 325
304 305 305 308 309 309 308 308 308 308 308 308 310 306 307 312 314 316 315 317 324 320 317 316 315 314 314 315 315 316 316 315 316 316 316 316 318 316 318 322 326 324 321 322 326 325 325
305 305 306 309 309 308 308 308 308 308 308 308 310 312 313 315 316 316 316 323 320 319 318 318 317 315 314 315 315 315 316 315 317 316 318 317 318 318 318 319 323 325 325 322 322 323 324
305 304 307 309 309 308 308 308 308 308 308 311 312 315 318 317 317 316 319 322 318 317 316 317 318 318 318 317 316 315 315 316 318 317 315 316 316 316 317 317 319 321 322 321 321 325 326
304 306 308 309 308 309 308 309 308 308 310 314 316 321 317 316 318 319 321 320 318 316 317 317 317 318 318 318 318 318 317 316 316 316 316 315 315 315 316 316 316 318 319 321 321 323 325
305 307 309 309 309 309 309 309 308 308 309 313 318 321 317 318 321 322 317 316 312 316 316 316 317 316 317 316 317 317 318 316 315 314 315 314 313 314 315 315 316 315 315 315 322 324 326
305 307 309 309 309 309 309 309 308 308 309 309 319 321 318 318 319 319 318 317 314 314 315 315 316 315 315 315 316 316 316 316 315 315 316 313 314 315 316 314 316 316 316 315 314 317 319
306 308 309 309 309 309 309 309 309 310 310 311 320 320 318 317 317 317 319 318 316 315 314 315 315 315 315 315 314 315 315 314 314 315 317 314 312 313 314 314 313 316 316 315 314 313 315
306 308 308 309 309 309 309 309 311 313 314 313 321 317 316 316 317 315 316 316 315 315 314 315 317 315 315 316 314 315 314 314 315 318 314 312 311 311 311 312 312 313 314 316 316 315 316
306 308 308 309 309 309 309 308 312 314 316 317 318 320 316 316 316 315 316 316 315 314 315 314 315 313 314 314 314 314 313 313 314 314 315 314 315 314 316 315 312 312 313 315 316 316 316
307 308 308 308 308 308 309 308 312 314 317 318 317 319 320 315 316 315 315 315 314 314 314 313 313 313 314 313 312 311 311 310 310 311 313 313 314 316 316 315 315 315 313 313 314 315 315
307 308 308 308 308 308 309 309 311 312 313 315 317 318 320 318 316 316 315 315 315 314 315 314 313 313 313 311 311 311 311 311 311 310 310 310 312 314 314 316 316 313 313 314 314 314 324
307 308 309 308 308 308 309 308 311 313 314 316 318 319 321 319 317 317 317 316 316 314 314 314 313 312 312 312 314 314 316 316 316 314 313 311 312 314 315 315 312 312 311 320 320 321 322
308 308 309 308 308 308 309 308 310 313 315 317 316 318 321 323 317 316 317 316 316 315 316 314 314 313 312 313 315 317 320 318 316 314 313 313 313 316 315 317 317 317 317 317 317 319 319
308 309 309 308 308 308 309 308 309 310 314 315 316 315 319 322 317 316 316 317 315 316 316 315 314 313 312 315 318 317 317 313 315 315 316 315 315 316 315 318 315 316 316 316 317 319 318
308 309 310 309 308 308 309 308 308 308 311 314 318 317 316 320 318 317 316 315 315 315 318 315 315 313 313 315 314 315 314 312 312 313 313 317 319 316 316 316 316 315 317 318 316 313 313
307 309 310 309 308 308 309 309 308 308 310 313 318 318 318 319 319 318 317 315 314 314 315 314 314 313 311 313 312 313 312 311 311 312 310 314 311 312 315 318 313 312 312 311 310 310 311

GFSGBSN_925_thetae_072.txt.gz
Theta_e
313 308 304 303 302 302 301 301 301 300 300 303 306 307 308 308 307 307 307 305 307 308 311 311 311 313 316 321 320 321 320 318 319 316 316 317 327 334 334 338 341 342 344 345 345 356 360
319 312 308 305 303 303 302 301 300 300 302 306 307 307 308 308 307 307 307 305 307 308 311 310 310 312 314 322 324 320 320 318 317 314 318 317 323 336 338 336 339 340 340 338 338 360 360
319 316 311 307 304 304 302 301 300 300 305 307 307 307 308 308 307 307 307 305 307 307 309 312 314 318 321 320 323 321 324 322 316 316 316 317 319 328 337 337 336 337 333 329 353 358 357
318 316 314 309 305 304 302 300 300 304 307 307 307 307 307 307 307 307 307 305 308 308 309 312 316 321 323 328 325 324 326 327 321 322 316 318 321 327 334 333 329 329 327 326 337 357 357
318 316 315 310 306 302 301 300 303 306 307 307 307 307 307 306 306 306 306 306 309 310 311 311 320 321 327 320 316 316 321 320 328 324 322 319 320 318 324 330 325 325 331 330 327 351 359
319 316 314 309 305 301 301 303 306 306 306 306 306 306 306 306 306 306 305 308 312 313 316 321 322 322 321 324 317 318 317 321 327 325 324 321 319 322 324 326 328 329 329 324 325 326 354
319 315 312 307 302 301 303 306 306 306 306 306 305 305 305 305 305 305 306 310 309 314 319 320 323 323 320 317 317 317 317 321 324 323 323 323 323 325 328 328 326 326 326 326 327 327 326
316 314 308 303 302 303 306 306 307 307 306 306 306 307 307 306 305 306 307 310 313 313 311 314 318 319 320 317 315 316 318 319 325 324 323 327 326 325 327 328 328 327 326 325 324 327 350
314 309 304 303 304 306 307 307 307 307 307 307 307 307 308 306 307 312 311 313 315 314 311 312 313 314 315 313 314 319 317 317 326 328 328 328 329 328 328 328 329 327 325 325 325 342 352
306 305 304 305 306 308 309 308 308 308 307 308 308 308 308 306 312 311 313 316 315 314 309 314 314 313 313 312 313 319 320 319 322 327 328 325 324 324 327 328 327 326 322 323 324 321 321
304 305 305 306 308 310 310 308 308 308 308 309 309 309 307 310 311 312 316 315 315 312 316 315 312 313 312 311 314 314 316 317 319 320 318 320 325 325 326 324 325 326 325 322 323 321 320
305 305 305 307 309 310 309 308 308 308 308 309 309 309 306 311 311 315 315 315 314 311 317 313 312 312 312 312 313 315 316 315 315 315 315 314 317 320 322 324 323 323 322 319 317 318 320
305 305 306 308 310 309 308 308 308 308 309 309 310 309 305 307 313 314 315 311 313 314 315 313 312 311 310 311 312 313 315 314 312 312 314 315 316 315 316 318 320 321 317 319 321 320 320
305 305 308 308 308 308 309 309 308 309 309 310 310 308 307 311 314 313 313 313 319 318 316 315 315 312 310 312 313 314 313 311 315 312 311 315 315 315 315 315 319 323 317 319 323 322 321
305 306 308 308 309 309 309 309 308 308 311 312 315 311 315 317 316 314 310 317 316 315 315 315 314 313 314 313 313 313 313 313 315 312 314 313 316 315 317 315 315 322 323 318 319 318 320
305 306 308 309 309 309 309 309 308 309 312 313 316 315 316 317 316 314 312 315 315 315 315 314 315 315 315 315 315 312 313 314 315 313 311 314 314 313 316 314 314 312 314 319 315 323 324
305 307 309 309 309 309 309 309 308 310 312 314 317 315 317 316 317 311 312 315 314 314 314 314 314 314 314 314 314 313 313 314 314 313 311 310 311 313 313 312 314 312 312 311 315 318 322
305 308 309 310 309 309 309 309 309 311 313 313 312 312 315 316 311 310 310 313 313 312 312 313 313 312 313 313 313 313 314 314 314 313 314 311 308 311 313 312 314 313 312 309 312 314 318
306 308 309 310 309 309 309 309 311 312 313 310 312 314 315 316 312 311 312 313 313 312 313 313 313 312 311 311 313 313 313 314 314 313 313 312 309 311 312 311 310 312 311 311 309 308 314
307 308 309 309 309 309 309 311 313 314 315 312 312 312 309 307 307 312 314 313 314 313 313 313 312 311 311 312 309 312 313 314 316 316 318 311 307 309 311 312 310 311 311 311 310 311 311
307 308 309 309 309 309 308 312 314 316 317 315 310 310 309 312 311 310 310 312 314 314 312 311 313 313 311 312 311 312 311 311 312 315 312 308 308 311 310 313 313 314 314 312 311 312 314
307 308 309 309 309 309 308 312 314 316 317 316 312 313 309 309 309 310 310 311 313 313 312 312 312 313 310 311 312 312 310 309 310 308 311 309 312 313 314 314 313 312 312 313 313 312 313
307 308 311 309 309 309 308 312 313 315 317 316 316 316 308 310 310 310 311 313 313 313 312 312 312 311 312 312 310 309 308 307 307 309 308 309 310 311 313 314 312 311 310 312 312 313 321
307 308 311 310 309 309 308 311 313 315 316 316 317 316 310 312 312 312 314 314 314 313 314 312 310 311 311 309 308 308 308 308 308 308 304 308 307 309 310 312 315 310 309 312 315 321 321
307 308 310 310 309 309 308 310 313 315 317 316 316 318 313 312 313 314 314 314 312 312 313 312 312 310 309 308 309 310 311 311 312 310 309 305 306 309 311 311 311 312 310 310 318 320 317
306 309 310 310 310 309 309 310 312 314 315 316 317 316 316 312 312 314 314 313 311 312 312 313 311 310 307 307 309 313 313 314 313 312 307 308 307 311 311 310 314 311 316 315 315 319 316
306 309 310 310 309 309 309 309 309 313 315 316 317 316 317 314 311 311 312 313 311 311 311 311 312 309 307 308 307 312 307 311 308 313 312 309 311 310 310 313 314 313 313 314 316 314 313
305 308 310 310 310 309 309 308 308 309 315 317 318 317 315 312 313 315 315 312 311 310 310 310 308 307 306 307 306 302 306 311 310 311 310 311 312 313 310 310 314 310 313 315 312 309 309
305 308 310 310 310 309 308 309 309 308 310 309 317 317 317 315 314 317 318 315 313 312 309 308 307 308 306 305 305 300 303 304 303 310 307 312 308 305 311 317 309 309 310 308 306 305 306

GFSGBSN_925_thetae_075.txt.gz
Theta_e
319 318 315 310 307 305 304 302 300 300 303 306 307 307 307 307 307 307 307 307 305 307 307 310 310 311 315 319 316 320 313 314 317 318 316 317 326 330 333 334 337 343 343 341 343 346 359
319 317 316 312 308 306 303 301 300 301 306 307 307 307 307 307 307 306 306 306 305 306 307 310 313 312 313 312 322 321 315 317 319 316 315 318 324 329 334 335 337 340 340 339 336 357 355
319 317 316 314 308 305 301 301 301 306 307 306 307 307 306 306 306 306 306 306 305 306 307 310 315 319 320 313 324 321 320 319 319 316 315 315 319 327 335 339 335 336 339 330 358 359 358
320 317 315 314 308 302 301 302 306 306 307 307 306 306 305 305 305 305 305 306 305 307 308 311 317 321 320 325 325 320 319 319 317 316 316 316 318 324 331 331 329 328 325 327 357 356 353
320 316 315 310 303 301 302 305 306 307 306 306 306 305 305 306 306 305 305 305 308 309 310 312 320 320 326 324 322 322 323 326 319 319 316 318 319 319 321 325 324 323 331 330 328 353 357
316 314 311 305 303 303 305 306 307 307 306 305 306 307 307 307 307 305 304 311 312 312 318 320 322 320 319 322 316 315 321 323 325 321 321 319 317 318 322 325 332 329 329 326 325 353 357
315 309 305 304 304 306 307 308 309 308 307 307 307 308 308 308 306 305 308 312 307 310 321 314 318 319 320 319 316 316 315 323 323 323 324 320 321 323 324 326 328 327 326 326 325 325 325
305 305 305 305 306 307 309 309 308 308 307 307 308 309 308 308 306 308 309 310 312 312 310 313 318 319 320 319 315 316 317 322 324 325 322 323 324 322 325 328 328 328 327 326 324 333 338
305 305 306 307 308 310 310 309 308 308 308 308 309 309 309 306 310 311 310 313 314 312 309 311 312 314 314 314 313 315 315 318 324 325 323 325 328 327 327 327 328 327 326 326 326 332 353
306 306 306 308 309 310 310 307 308 308 309 308 309 309 309 309 310 313 313 314 314 311 308 313 313 313 312 311 312 315 318 320 322 326 326 326 326 328 326 327 326 327 324 325 324 320 321
305 306 308 310 311 310 308 309 309 309 309 309 310 310 308 311 313 312 314 315 315 310 315 315 311 312 309 310 313 314 315 316 319 319 320 326 322 324 323 323 324 326 324 323 322 320 319
305 306 309 310 309 308 309 309 309 308 309 310 310 310 306 309 309 314 313 315 313 311 315 313 312 311 310 311 312 314 314 313 313 314 313 314 315 321 323 324 322 323 323 317 314 315 319
305 306 308 310 310 309 309 309 309 309 311 311 313 310 306 307 312 312 312 310 312 315 314 316 311 311 310 311 312 314 314 311 312 311 313 314 315 313 313 316 318 317 316 318 320 319 319
306 307 309 310 310 309 309 309 308 310 312 313 314 311 312 313 313 312 312 310 316 317 315 314 314 310 312 311 311 312 311 310 313 310 311 313 315 314 314 315 316 321 316 317 322 320 320
306 307 310 311 310 309 309 309 309 312 314 314 315 313 314 317 316 314 309 312 314 314 314 314 314 314 314 314 311 312 312 312 312 311 313 313 315 314 315 313 314 317 318 317 315 315 319
306 308 310 310 310 309 309 309 311 314 315 315 317 317 316 314 315 313 310 313 313 313 313 312 313 313 313 313 314 311 312 313 313 312 310 312 314 312 314 313 312 311 312 316 314 321 324
307 308 310 311 310 309 308 310 312 315 315 316 317 311 314 314 315 307 310 312 313 311 313 313 312 312 312 312 312 312 312 314 313 313 310 309 309 312 311 312 312 311 311 309 311 314 319
307 308 310 310 309 309 309 311 313 315 316 316 313 311 315 314 310 304 308 311 312 311 311 312 311 311 311 310 311 312 313 313 313 312 313 309 306 310 312 309 311 310 309 307 310 313 312
307 308 310 309 309 308 309 313 314 315 316 314 312 312 314 314 311 309 311 312 312 312 311 312 312 311 309 311 312 312 313 313 315 313 311 311 308 311 310 308 308 309 309 308 306 305 311
307 309 310 310 309 308 311 314 315 315 316 315 307 310 307 305 304 310 311 311 313 313 312 311 311 310 310 310 308 312 312 312 312 316 318 309 304 309 311 311 309 312 313 309 308 309 311
307 308 310 310 309 309 311 313 315 316 316 313 305 308 307 310 309 309 309 311 313 313 310 309 312 311 310 311 311 311 310 309 310 311 310 305 308 311 310 312 312 313 312 312 310 311 312
306 308 311 310 309 309 311 314 315 316 316 315 312 313 306 306 306 308 308 311 313 312 310 311 311 312 310 311 311 312 310 310 309 308 307 306 311 312 311 312 311 312 310 311 311 311 312
306 309 311 310 310 308 310 313 315 315 317 315 315 313 307 307 307 309 310 312 313 311 311 311 311 310 312 311 310 308 307 307 308 309 307 306 307 309 311 311 310 307 309 310 311 317 316
305 308 310 310 310 308 309 313 314 315 316 316 317 313 308 311 310 311 313 313 313 312 312 310 310 311 310 308 308 306 306 306 307 308 304 305 306 306 309 309 312 306 308 311 321 320 319
304 308 310 310 310 309 308 311 313 315 316 316 316 316 308 311 311 313 313 313 311 310 312 312 311 309 306 306 307 309 308 310 310 307 306 303 304 307 309 309 308 310 312 313 316 319 316
304 308 310 310 310 309 308 309 312 314 316 317 316 316 312 309 311 313 313 311 310 311 311 312 310 307 305 305 306 311 313 312 312 309 305 306 304 308 307 308 313 310 313 313 313 318 315
304 307 310 311 310 309 309 308 309 312 316 317 317 317 315 310 309 310 311 311 309 308 309 308 310 308 304 305 307 308 305 307 305 312 311 304 309 308 307 308 311 311 310 311 314 312 311
304 306 309 311 310 309 309 309 308 309 314 316 317 316 315 310 311 314 314 311 309 308 309 308 306 304 303 304 301 300 300 302 305 308 309 307 310 308 311 309 311 309 311 314 309 307 307
304 305 309 311 310 310 309 309 309 308 309 309 317 314 316 313 312 316 317 317 313 311 307 304 305 305 303 301 299 297 308 305 299 301 306 306 306 303 308 308 310 309 309 306 305 304 304